Printer-friendly version

IAU Minor Planet Center

Minor Planet Center

MPEC 2000-E44: 2000 EJ26

The following Minor Planet Electronic Circular may be linked-to from your own Web pages, but must not otherwise be redistributed electronically.


Read MPEC 2000-E43 Read MPEC 2000-E45


M.P.E.C. 2000-E44                                Issued 2000 Mar. 10, 17:51 UT

     The Minor Planet Electronic Circulars contain information on unusual
         minor planets and routine data on comets.  They are published
   on behalf of Commission 20 of the International Astronomical Union by the
          Minor Planet Center, Smithsonian Astrophysical Observatory,
                          Cambridge, MA 02138, U.S.A.

             Prepared using the Tamkin Foundation Computer Network

             BMARSDEN@CFA.HARVARD.EDU or GWILLIAMS@CFA.HARVARD.EDU
          URL http://cfa-www.harvard.edu/iau/mpc.html  ISSN 1523-6714

                                   2000 EJ26

Observations:
     K00E26J* C2000 03 04.30937 11 01 23.66 +20 08 37.8          19.0        704
     K00E26J  C2000 03 04.32262 11 01 21.07 +20 08 50.8          19.2        704
     K00E26J  C2000 03 04.33586 11 01 18.48 +20 09 03.2          19.6        704
     K00E26J  C2000 03 05.30176 10 58 10.17 +20 24 34.5          19.5 R      858
     K00E26J  C2000 03 05.30539 10 58 09.41 +20 24 37.7          19.2 R      858
     K00E26J  C2000 03 05.30913 10 58 08.66 +20 24 41.8          19.0 R      858
     K00E26J  C2000 03 06.57571 10 53 52.62 +20 45 08.5          20.8 R      474
     K00E26J  C2000 03 06.58132 10 53 51.63 +20 45 16.6          19.4 R      474
     K00E26J  C2000 03 07.07291 10 52 09.64 +20 52 35.0          19.4 V      557
     K00E26J  C2000 03 07.09661 10 52 04.60 +20 52 56.2                      557
     K00E26J  C2000 03 09.29686 10 44 12.50 +21 26 52.9          18.7        704
     K00E26J  C2000 03 09.31005 10 44 09.42 +21 27 04.4          19.4        704
     K00E26J  C2000 03 09.32326 10 44 06.56 +21 27 17.5          19.9        704
     K00E26J  C2000 03 09.33647 10 44 03.49 +21 27 28.4          20.0        704
     K00E26J  C2000 03 09.34972 10 44 00.52 +21 27 40.7          19.6        704

Observer details:
474 Mount John Observatory, Lake Tekapo.  Observers I. P. Griffin, N. Brady.
    1.0-m f/7.7 reflector + CCD.
557 Ondrejov.  Observers P. Pravec, P. Kusnirak.  0.65-m f/3.6 reflector + CCD.
704 Lincoln Laboratory ETS, New Mexico.  Observers M. Blythe, F. Shelly,
    M. Bezpalko, M. Elowitz, R. Huber.  Measurers J. Stuart, H. Viggh,
    R. Sayer, J. B. Evans.  1.0-m f/2.15 reflector + CCD.
858 Tebbutt Observatory, Edgewood.  Observer F. B. Zoltowski.  0.3-m f/3.3
    Schmidt-Cassegrain + CCD.

Orbital elements:
2000 EJ26                                                            PHA 0.007
Epoch 2000 Feb. 26.0 TT = JDT 2451600.5                 Williams
M 292.11505              (2000.0)            P               Q
n   0.60296343     Peri.  285.89476     +0.44478414     +0.89513575
a   1.3876355      Node    10.66530     -0.74721837     +0.38932685
e   0.6192766      Incl.    9.32384     -0.49379325     +0.21715567
P   1.63           H   19.5           G   0.15
From 15 observations 2000 Mar. 4-9.

Ephemeris:
2000 EJ26                a,e,i = 1.39, 0.62, 9                   q = 0.5283
Date    TT    R. A. (2000) Decl.     Delta      r     Elong.  Phase     V
2000 03 07    10 52.42   +20 51.6    0.515    1.493   163.7    10.7    19.6
2000 03 12    10 33.96   +22 06.2    0.484    1.451   156.8    15.6    19.6
2000 03 17    10 13.62   +23 08.7    0.460    1.407   148.4    21.8    19.6
2000 03 22    09 52.14   +23 53.7    0.442    1.362   139.3    28.5    19.7
2000 03 27    09 30.38   +24 17.6    0.429    1.315   129.9    35.6    19.7
2000 04 01    09 09.18   +24 19.5    0.421    1.267   120.6    42.8    19.8
2000 04 06    08 49.20   +24 00.9    0.416    1.217   111.6    49.9    19.9
2000 04 11    08 30.77   +23 25.1    0.413    1.166   102.8    57.0    20.0
2000 04 16    08 13.86   +22 35.6    0.411    1.113    94.3    64.0    20.1
2000 04 21    07 58.12   +21 35.9    0.409    1.059    86.1    71.2    20.2
2000 04 26    07 43.00   +20 28.3    0.406    1.004    78.0    78.7    20.3
2000 05 01    07 27.81   +19 14.6    0.402    0.947    69.8    86.7    20.5
2000 05 06    07 11.65   +17 56.2    0.397    0.890    61.4    95.6    20.7

Gareth V. Williams           (C) Copyright 2000 MPC           M.P.E.C. 2000-E44

Read MPEC 2000-E43 Read MPEC 2000-E45


Our Web policy. Index to the CBAT/MPC/ICQ pages.


Valid HTML 4.01!